Simultaneous Nadir Overpasses (SNOs) Predictions

Prediction of SNOs between GOES-14 and AQUA Satellite Orbit:

Table of predicted SNOs for the next 14.0 days since TLE Epoch: 5/20/2023
Index Date Time (GOES-14) GOES-14 Lat,Lon AQUA Lat,Lon Distance(km) Time Diff (sec)
1 05/20/2023 08:52:44 0.10,-108.51 -0.33,-106.44 235.37 80
2 05/20/2023 21:13:39 -0.08,-108.46 -0.74,-111.52 347.25 80
3 05/22/2023 21:02:19 -0.08,-108.48 -0.03,-108.09 43.51 80
4 05/24/2023 20:48:18 -0.09,-108.50 0.71,-104.67 434.54 80
5 05/25/2023 09:09:05 0.07,-108.57 0.32,-109.72 131.36 80
6 05/27/2023 08:52:23 0.08,-108.58 -0.39,-106.29 259.96 80
7 05/27/2023 21:13:19 -0.05,-108.52 -0.65,-111.37 323.93 80
8 05/29/2023 21:01:56 -0.06,-108.54 0.05,-107.94 68.04 80
9 05/30/2023 09:20:04 0.04,-108.62 0.96,-112.98 495.94 80
10 05/31/2023 20:47:54 -0.07,-108.56 0.83,-104.52 460.07 80
11 06/01/2023 09:06:01 0.04,-108.64 0.24,-109.56 104.29 80
